PAL784 VCBI-RPLL

Flight info

Callsign PAL784
Flight time N/A
Altitude 35000
Route DORTA DCT ESPAP P762 LALIT M502 RENOX/N0449F370 M502 BKK G474 OMURO/N0402F250 G474 VEMKO/N0448F370 G474 ANINA/K0830F370 G474 PCA L628 MESOX/N0448F370 L628 GUKUM W23 ZULUR DCT OLONG OLONG1A
Aircraft A320/M-SDE3FGHIRWY/LB1

Departure

Time 2026-04-29 05:19
Airport Bandaranaike International Colombo Airport (VCBI)

Arrival

Time N/A
Airport Ninoy Aquino International Airport (RPLL)
Time Latitude Longitude Altitude Speed Heading
2026-04-29 04:45 7.17652 79.88374 33 ft 0 kts 37°
2026-04-29 05:09 7.17640 79.88365 32 ft 4 kts 33°
2026-04-29 05:09 7.17617 79.88351 32 ft 4 kts 24°
2026-04-29 05:10 7.17592 79.88342 33 ft 4 kts
2026-04-29 05:10 7.17582 79.88341 32 ft 4 kts 353°
2026-04-29 05:10 7.17569 79.88344 31 ft 4 kts 322°
2026-04-29 05:10 7.17563 79.88349 31 ft 0 kts 307°
2026-04-29 05:12 7.17568 79.88342 31 ft 6 kts 307°
2026-04-29 05:13 7.17608 79.88288 34 ft 9 kts 307°
2026-04-29 05:13 7.17654 79.88263 34 ft 9 kts 11°
2026-04-29 05:13 7.17736 79.88322 34 ft 16 kts 39°
2026-04-29 05:13 7.17817 79.88388 33 ft 14 kts 39°
2026-04-29 05:14 7.17890 79.88445 34 ft 15 kts 35°
2026-04-29 05:14 7.17987 79.88517 33 ft 18 kts 37°
2026-04-29 05:14 7.18084 79.88588 32 ft 16 kts 37°
2026-04-29 05:14 7.18168 79.88651 34 ft 14 kts 35°
2026-04-29 05:15 7.18242 79.88708 34 ft 15 kts 38°
2026-04-29 05:15 7.18351 79.88790 35 ft 21 kts 37°
2026-04-29 05:15 7.18462 79.88875 35 ft 19 kts 38°
2026-04-29 05:15 7.18528 79.88926 35 ft 17 kts 37°
2026-04-29 05:16 7.18630 79.89005 35 ft 22 kts 38°
2026-04-29 05:16 7.18751 79.89097 36 ft 20 kts 37°
2026-04-29 05:16 7.18857 79.89178 35 ft 18 kts 37°
2026-04-29 05:16 7.18951 79.89251 34 ft 16 kts 37°
2026-04-29 05:17 7.19040 79.89318 36 ft 19 kts 37°
2026-04-29 05:17 7.19160 79.89410 35 ft 16 kts 37°
2026-04-29 05:17 7.19241 79.89386 35 ft 13 kts 308°
2026-04-29 05:17 7.19289 79.89313 35 ft 12 kts 285°
2026-04-29 05:18 7.19266 79.89262 34 ft 0 kts 219°
2026-04-29 05:18 7.19262 79.89259 35 ft 6 kts 219°
2026-04-29 05:18 7.19030 79.89084 36 ft 76 kts 217°
2026-04-29 05:19 7.18449 79.88642 35 ft 131 kts 217°
2026-04-29 05:19 7.17609 79.88002 152 ft 160 kts 217°
2026-04-29 05:19 7.16742 79.87342 795 ft 156 kts 214°
2026-04-29 05:19 7.15754 79.86935 1384 ft 158 kts 178°
2026-04-29 05:20 7.14708 79.87315 1971 ft 167 kts 153°
2026-04-29 05:20 7.13621 79.87912 2279 ft 189 kts 154°
2026-04-29 05:20 7.12397 79.88573 2523 ft 212 kts 154°
2026-04-29 05:20 7.11025 79.89320 2764 ft 237 kts 149°
2026-04-29 05:21 7.09918 79.90582 3247 ft 251 kts 113°
2026-04-29 05:21 7.09769 79.92358 3750 ft 268 kts 78°
2026-04-29 05:21 7.10696 79.94013 4354 ft 279 kts 47°
2026-04-29 05:21 7.12193 79.95275 5072 ft 283 kts 36°
2026-04-29 05:22 7.13859 79.96355 5762 ft 287 kts 33°
2026-04-29 05:22 7.15566 79.97411 6485 ft 288 kts 33°
2026-04-29 05:22 7.17257 79.98507 7180 ft 289 kts 34°
2026-04-29 05:22 7.18920 79.99654 7859 ft 291 kts 37°
2026-04-29 05:23 7.20565 80.00848 8533 ft 292 kts 38°
2026-04-29 05:23 7.22199 80.02075 9204 ft 293 kts 40°
2026-04-29 05:23 7.23668 80.03495 9870 ft 292 kts 54°
2026-04-29 05:23 7.24771 80.05205 10457 ft 293 kts 64°
2026-04-29 05:24 7.25502 80.07151 10636 ft 311 kts 78°
2026-04-29 05:24 7.25782 80.09365 10820 ft 327 kts 88°
2026-04-29 05:24 7.25893 80.11708 11050 ft 341 kts 88°
2026-04-29 05:24 7.26018 80.14114 11526 ft 347 kts 87°
2026-04-29 05:25 7.26150 80.16552 12115 ft 349 kts 87°
2026-04-29 05:25 7.26284 80.19005 12663 ft 352 kts 87°
2026-04-29 05:25 7.26422 80.21481 13200 ft 356 kts 87°
2026-04-29 05:25 7.26560 80.23979 13739 ft 358 kts 87°
2026-04-29 05:26 7.26698 80.26496 14222 ft 361 kts 87°
2026-04-29 05:26 7.26835 80.29028 14689 ft 364 kts 87°
2026-04-29 05:26 7.26971 80.31582 15178 ft 366 kts 87°
2026-04-29 05:26 7.27107 80.34156 15642 ft 369 kts 87°
2026-04-29 05:27 7.27244 80.36743 16104 ft 371 kts 87°
2026-04-29 05:27 7.27529 80.41972 17031 ft 376 kts 86°
2026-04-29 05:27 7.27963 80.44582 17471 ft 380 kts 75°
2026-04-29 05:28 7.28820 80.47112 17925 ft 384 kts 71°
2026-04-29 05:28 7.29732 80.49649 18350 ft 386 kts 71°
2026-04-29 05:28 7.30647 80.52198 18738 ft 388 kts 71°
2026-04-29 05:28 7.31565 80.54767 19113 ft 391 kts 71°
2026-04-29 05:29 7.32486 80.57352 19504 ft 393 kts 71°
2026-04-29 05:29 7.33409 80.59954 19897 ft 395 kts 72°
2026-04-29 05:29 7.34336 80.62565 20300 ft 397 kts 71°
2026-04-29 05:29 7.35257 80.65159 20674 ft 399 kts 72°
2026-04-29 05:30 7.36209 80.67834 21056 ft 401 kts 72°
2026-04-29 05:30 7.37140 80.70453 21422 ft 404 kts 72°
2026-04-29 05:30 7.38089 80.73124 21784 ft 406 kts 72°
2026-04-29 05:30 7.39041 80.75803 22157 ft 408 kts 72°
2026-04-29 05:31 7.39999 80.78502 22480 ft 410 kts 72°
2026-04-29 05:31 7.40963 80.81216 22852 ft 412 kts 72°
2026-04-29 05:31 7.41931 80.83936 23196 ft 414 kts 72°
2026-04-29 05:31 7.42904 80.86670 23520 ft 415 kts 72°
2026-04-29 05:32 7.43879 80.89416 23752 ft 417 kts 72°
2026-04-29 05:32 7.44859 80.92177 23991 ft 420 kts 72°
2026-04-29 05:32 7.45845 80.94952 24242 ft 422 kts 72°
2026-04-29 05:32 7.46839 80.97747 24488 ft 424 kts 72°
2026-04-29 05:33 7.47835 81.00546 24724 ft 426 kts 71°
2026-04-29 05:33 7.48837 81.03367 24966 ft 428 kts 72°
2026-04-29 05:33 7.49841 81.06193 25196 ft 430 kts 72°
2026-04-29 05:33 7.50851 81.09039 25417 ft 432 kts 71°
2026-04-29 05:34 7.51866 81.11898 25628 ft 435 kts 71°
2026-04-29 05:34 7.52885 81.14774 25834 ft 437 kts 71°
2026-04-29 05:34 7.54027 81.17622 26051 ft 440 kts 64°
2026-04-29 05:34 7.55601 81.20275 26264 ft 443 kts 57°
2026-04-29 05:35 7.57331 81.22857 26477 ft 445 kts 57°
2026-04-29 05:35 7.59068 81.25446 26692 ft 447 kts 57°
2026-04-29 05:35 7.60811 81.28049 26902 ft 449 kts 57°
2026-04-29 05:35 7.62559 81.30666 27115 ft 451 kts 57°
2026-04-29 05:36 7.64312 81.33291 27317 ft 452 kts 57°
2026-04-29 05:36 7.66053 81.35898 27517 ft 454 kts 57°
2026-04-29 05:36 7.67814 81.38544 27717 ft 456 kts 57°
2026-04-29 05:36 7.69583 81.41206 27921 ft 458 kts 57°
2026-04-29 05:37 7.71362 81.43879 28112 ft 459 kts 57°
2026-04-29 05:37 7.73067 81.46602 28300 ft 460 kts 63°
2026-04-29 05:37 7.74364 81.49543 28482 ft 460 kts 71°
2026-04-29 05:37 7.75441 81.52595 28656 ft 462 kts 71°
2026-04-29 05:38 7.76517 81.55649 28833 ft 463 kts 71°
2026-04-29 05:38 7.77600 81.58713 28997 ft 465 kts 71°
2026-04-29 05:38 7.78692 81.61786 29164 ft 466 kts 71°
2026-04-29 05:38 7.79788 81.64874 29327 ft 468 kts 71°
2026-04-29 05:39 7.80884 81.67963 29488 ft 469 kts 72°
2026-04-29 05:39 7.81987 81.71071 29633 ft 471 kts 72°
2026-04-29 05:39 7.83087 81.74184 29779 ft 472 kts 71°
2026-04-29 05:39 7.84190 81.77307 29913 ft 474 kts 72°
2026-04-29 05:40 7.85295 81.80440 30084 ft 473 kts 72°
2026-04-29 05:40 7.86397 81.83565 30270 ft 473 kts 71°
2026-04-29 05:40 7.87499 81.86688 30441 ft 473 kts 71°
2026-04-29 05:40 7.88605 81.89820 30611 ft 473 kts 72°
2026-04-29 05:41 7.89710 81.92945 30772 ft 474 kts 71°
2026-04-29 05:41 7.90816 81.96073 30952 ft 473 kts 71°
2026-04-29 05:41 7.91923 81.99206 31116 ft 474 kts 71°
2026-04-29 05:41 7.93032 82.02338 31300 ft 474 kts 71°
2026-04-29 05:42 7.94138 82.05465 31453 ft 474 kts 71°
2026-04-29 05:42 7.95243 82.08597 31642 ft 474 kts 71°
2026-04-29 05:42 7.96349 82.11734 31791 ft 474 kts 71°
2026-04-29 05:42 7.97454 82.14870 31980 ft 474 kts 71°
2026-04-29 05:43 7.98553 82.18001 32143 ft 474 kts 71°
2026-04-29 05:43 7.99654 82.21142 32343 ft 474 kts 71°
2026-04-29 05:43 8.00750 82.24275 32496 ft 474 kts 71°
2026-04-29 05:43 8.01848 82.27414 32692 ft 474 kts 71°
2026-04-29 05:44 8.02947 82.30549 32855 ft 474 kts 71°
2026-04-29 05:44 8.04054 82.33688 33047 ft 474 kts 71°
2026-04-29 05:44 8.05160 82.36819 33207 ft 474 kts 70°
2026-04-29 05:44 8.06273 82.39961 33411 ft 474 kts 71°
2026-04-29 05:45 8.07377 82.43087 33631 ft 473 kts 72°
2026-04-29 05:45 8.08476 82.46207 33852 ft 471 kts 71°
2026-04-29 05:45 8.09555 82.49281 34021 ft 471 kts 71°
2026-04-29 05:45 8.10648 82.52399 34192 ft 471 kts 71°
2026-04-29 05:46 8.11739 82.55512 34353 ft 470 kts 71°
2026-04-29 05:46 8.12843 82.58665 34506 ft 469 kts 71°
2026-04-29 05:46 8.13931 82.61770 34679 ft 469 kts 71°
2026-04-29 05:46 8.15022 82.64871 34826 ft 469 kts 71°
2026-04-29 05:47 8.17183 82.71025 34885 ft 468 kts 71°
2026-04-29 05:47 8.19351 82.77211 34888 ft 467 kts 71°
2026-04-29 05:48 8.21520 82.83394 34887 ft 467 kts 71°
2026-04-29 05:48 8.23680 82.89576 34882 ft 467 kts 71°
2026-04-29 05:49 8.25810 82.95771 34883 ft 468 kts 71°
2026-04-29 05:49 8.27927 83.01977 34891 ft 467 kts 72°
2026-04-29 05:50 8.30045 83.08181 34882 ft 468 kts 72°
2026-04-29 05:50 8.32182 83.14398 34878 ft 468 kts 71°
2026-04-29 05:51 8.34320 83.20609 34883 ft 469 kts 71°
2026-04-29 05:51 8.36455 83.26826 34885 ft 469 kts 72°
2026-04-29 05:52 8.38585 83.33043 34891 ft 469 kts 71°
2026-04-29 05:52 8.40705 83.39267 34893 ft 469 kts 72°
2026-04-29 05:53 8.42833 83.45495 34893 ft 469 kts 72°
2026-04-29 05:53 8.44967 83.51714 34894 ft 469 kts 72°
2026-04-29 05:54 8.47101 83.57942 34887 ft 469 kts 71°
2026-04-29 05:54 8.49234 83.64180 34892 ft 470 kts 71°
2026-04-29 05:55 8.51368 83.70421 34893 ft 470 kts 71°
2026-04-29 05:55 8.53498 83.76666 34890 ft 470 kts 71°
2026-04-29 05:56 8.55620 83.82907 34893 ft 470 kts 71°
2026-04-29 05:56 8.57743 83.89152 34886 ft 470 kts 71°
2026-04-29 05:57 8.59867 83.95392 34890 ft 469 kts 71°
2026-04-29 05:57 8.61975 84.01586 34891 ft 469 kts 71°
2026-04-29 05:58 8.64107 84.07864 34888 ft 469 kts 71°
2026-04-29 05:58 8.66219 84.14064 34889 ft 469 kts 71°
2026-04-29 05:59 8.68340 84.20299 34894 ft 469 kts 71°
2026-04-29 05:59 8.70451 84.26525 34896 ft 468 kts 71°
2026-04-29 06:00 8.72563 84.32744 34904 ft 467 kts 71°
2026-04-29 06:00 8.74330 84.37956 34905 ft 467 kts 71°
2026-04-29 06:01 8.76435 84.44164 34901 ft 467 kts 71°
2026-04-29 06:01 8.78538 84.50369 34899 ft 466 kts 71°
2026-04-29 06:02 8.80640 84.56567 34901 ft 466 kts 71°
2026-04-29 06:02 8.82727 84.62726 34900 ft 466 kts 71°
2026-04-29 06:03 8.84822 84.68930 34893 ft 466 kts 71°
2026-04-29 06:03 8.86918 84.75144 34895 ft 467 kts 71°
2026-04-29 06:04 8.89024 84.81349 34891 ft 467 kts 71°
2026-04-29 06:04 8.91154 84.87558 34898 ft 467 kts 71°
2026-04-29 06:05 8.93289 84.93763 34895 ft 467 kts 71°
2026-04-29 06:05 8.95437 85.00011 34895 ft 467 kts 71°
2026-04-29 06:06 8.97562 85.06226 34897 ft 467 kts 71°
2026-04-29 06:06 8.99672 85.12405 34897 ft 468 kts 71°
2026-04-29 06:07 9.01809 85.18631 34896 ft 468 kts 71°
2026-04-29 06:07 9.03937 85.24856 34902 ft 468 kts 71°
2026-04-29 06:08 9.06063 85.31087 34895 ft 468 kts 71°
2026-04-29 06:08 9.08196 85.37319 34896 ft 468 kts 71°
2026-04-29 06:09 9.10320 85.43546 34900 ft 468 kts 71°
2026-04-29 06:09 9.12443 85.49781 34899 ft 468 kts 71°
2026-04-29 06:10 9.14570 85.56008 34892 ft 468 kts 71°
2026-04-29 06:10 9.16696 85.62236 34894 ft 468 kts 71°
2026-04-29 06:11 9.18810 85.68469 34902 ft 468 kts 71°
2026-04-29 06:11 9.20922 85.74705 34900 ft 468 kts 71°
2026-04-29 06:12 9.23047 85.80938 34902 ft 468 kts 71°
2026-04-29 06:12 9.25174 85.87171 34904 ft 469 kts 71°
2026-04-29 06:13 9.27332 85.93394 34898 ft 469 kts 70°
2026-04-29 06:13 9.29534 85.99597 34900 ft 468 kts 70°
2026-04-29 06:14 9.31727 86.05803 34899 ft 468 kts 70°
2026-04-29 06:14 9.33892 86.11981 34901 ft 468 kts 70°
2026-04-29 06:15 9.36063 86.18196 34900 ft 468 kts 70°
2026-04-29 06:15 9.38236 86.24407 34895 ft 468 kts 70°
2026-04-29 06:16 9.40407 86.30621 34899 ft 468 kts 70°
2026-04-29 06:16 9.42582 86.36832 34896 ft 468 kts 70°
2026-04-29 06:17 9.44759 86.43036 34897 ft 468 kts 70°
2026-04-29 06:17 9.46935 86.49250 34900 ft 468 kts 70°
2026-04-29 06:18 9.49105 86.55465 34898 ft 468 kts 70°
2026-04-29 06:18 9.51279 86.61692 34893 ft 469 kts 70°
2026-04-29 06:19 9.53454 86.67920 34894 ft 469 kts 70°
2026-04-29 06:19 9.55625 86.74149 34896 ft 469 kts 70°
2026-04-29 06:20 9.57802 86.80390 34900 ft 470 kts 70°
2026-04-29 06:20 9.59980 86.86636 34905 ft 470 kts 70°
2026-04-29 06:21 9.62158 86.92884 34909 ft 470 kts 70°
2026-04-29 06:21 9.64330 86.99131 34907 ft 470 kts 70°
2026-04-29 06:22 9.66501 87.05385 34906 ft 471 kts 70°
2026-04-29 06:22 9.68675 87.11646 34909 ft 471 kts 70°
2026-04-29 06:23 9.70846 87.17904 34909 ft 471 kts 70°
2026-04-29 06:23 9.73011 87.24134 34914 ft 471 kts 70°
2026-04-29 06:24 9.75200 87.30442 34917 ft 471 kts 70°
2026-04-29 06:24 9.77376 87.36714 34920 ft 471 kts 70°
2026-04-29 06:25 9.79665 87.42931 34918 ft 471 kts 69°
2026-04-29 06:25 9.82028 87.49130 34917 ft 471 kts 69°
2026-04-29 06:26 9.84374 87.55338 34917 ft 472 kts 69°
2026-04-29 06:26 9.86692 87.61572 34919 ft 473 kts 69°
2026-04-29 06:27 9.89000 87.67819 34918 ft 473 kts 69°
2026-04-29 06:27 9.91317 87.74065 34922 ft 473 kts 69°
2026-04-29 06:28 9.93647 87.80310 34921 ft 474 kts 69°
2026-04-29 06:28 9.95977 87.86562 34920 ft 474 kts 69°
2026-04-29 06:29 9.98280 87.92781 34920 ft 474 kts 69°
2026-04-29 06:29 10.00591 87.99039 34919 ft 474 kts 69°
2026-04-29 06:30 10.04080 88.08423 34920 ft 474 kts 69°
2026-04-29 06:31 10.06403 88.14677 34917 ft 474 kts 69°
2026-04-29 06:31 10.08715 88.20936 34919 ft 474 kts 69°
2026-04-29 06:32 10.11023 88.27197 34918 ft 474 kts 69°
2026-04-29 06:32 10.13339 88.33462 34919 ft 474 kts 69°
2026-04-29 06:33 10.15657 88.39721 34918 ft 474 kts 69°
2026-04-29 06:33 10.17971 88.45984 34917 ft 474 kts 69°
2026-04-29 06:34 10.20277 88.52256 34920 ft 474 kts 69°
2026-04-29 06:34 10.22590 88.58527 34916 ft 474 kts 69°
2026-04-29 06:35 10.24903 88.64802 34913 ft 475 kts 69°
2026-04-29 06:35 10.27212 88.71081 34914 ft 475 kts 69°
2026-04-29 06:36 10.29530 88.77362 34916 ft 475 kts 69°
2026-04-29 06:36 10.31847 88.83647 34922 ft 475 kts 69°
2026-04-29 06:37 10.34169 88.89939 34921 ft 475 kts 69°
2026-04-29 06:37 10.36475 88.96236 34921 ft 475 kts 69°
2026-04-29 06:38 10.38779 89.02532 34923 ft 476 kts 69°
2026-04-29 06:38 10.41087 89.08824 34923 ft 476 kts 69°
2026-04-29 06:39 10.43399 89.15115 34922 ft 475 kts 69°
2026-04-29 06:39 10.45709 89.21406 34920 ft 475 kts 69°
2026-04-29 06:40 10.48016 89.27698 34918 ft 476 kts 70°
2026-04-29 06:40 10.50315 89.34000 34915 ft 476 kts 70°
2026-04-29 06:41 10.52622 89.40305 34918 ft 476 kts 70°
2026-04-29 06:41 10.54931 89.46608 34918 ft 476 kts 70°
2026-04-29 06:42 10.56839 89.51855 34921 ft 476 kts 70°
2026-04-29 06:42 10.59144 89.58161 34924 ft 476 kts 70°
2026-04-29 06:43 10.61451 89.64474 34921 ft 476 kts 70°
2026-04-29 06:43 10.63754 89.70790 34922 ft 476 kts 70°
2026-04-29 06:44 10.66054 89.77101 34921 ft 476 kts 70°
2026-04-29 06:44 10.68355 89.83417 34920 ft 476 kts 70°
2026-04-29 06:45 10.70652 89.89736 34922 ft 476 kts 70°
2026-04-29 06:45 10.72932 89.96025 34923 ft 477 kts 70°
2026-04-29 06:46 10.75220 90.02355 34921 ft 477 kts 70°
2026-04-29 06:46 10.77412 90.08725 34916 ft 477 kts 71°
2026-04-29 06:47 10.79568 90.15110 34912 ft 478 kts 71°
2026-04-29 06:47 10.81753 90.21504 34917 ft 478 kts 71°
2026-04-29 06:48 10.83945 90.27882 34918 ft 478 kts 71°
2026-04-29 06:48 10.86144 90.34263 34920 ft 478 kts 71°
2026-04-29 06:49 10.88336 90.40653 34924 ft 479 kts 71°
2026-04-29 06:49 10.90525 90.47054 34916 ft 480 kts 71°
2026-04-29 06:50 10.92720 90.53471 34913 ft 480 kts 71°
2026-04-29 06:50 10.94911 90.59897 34920 ft 481 kts 71°
2026-04-29 06:51 10.97113 90.66328 34915 ft 481 kts 71°
2026-04-29 06:51 10.99316 90.72762 34917 ft 482 kts 71°
2026-04-29 06:52 11.01510 90.79196 34919 ft 482 kts 71°
2026-04-29 06:52 11.03708 90.85662 34911 ft 483 kts 71°
2026-04-29 06:53 11.05910 90.92125 34916 ft 484 kts 71°
2026-04-29 06:53 11.08112 90.98601 34918 ft 484 kts 71°
2026-04-29 06:54 11.10316 91.05084 34922 ft 484 kts 71°
2026-04-29 06:54 11.12515 91.11569 34925 ft 484 kts 71°
2026-04-29 06:55 11.14719 91.18048 34928 ft 484 kts 71°
2026-04-29 06:55 11.16922 91.24533 34925 ft 485 kts 71°
2026-04-29 06:56 11.19129 91.31026 34923 ft 485 kts 71°
2026-04-29 06:56 11.21328 91.37516 34918 ft 485 kts 71°
2026-04-29 06:57 11.23521 91.43999 34914 ft 484 kts 71°
2026-04-29 06:57 11.25717 91.50492 34914 ft 484 kts 71°
2026-04-29 06:58 11.27913 91.56988 34926 ft 484 kts 71°
2026-04-29 06:58 11.30093 91.63443 34930 ft 485 kts 71°
2026-04-29 06:59 11.32288 91.69940 34927 ft 485 kts 71°
2026-04-29 06:59 11.34486 91.76447 34916 ft 486 kts 71°
2026-04-29 07:00 11.36659 91.82980 34916 ft 487 kts 72°
2026-04-29 07:00 11.38708 91.89576 34918 ft 488 kts 73°
2026-04-29 07:01 11.40708 91.96185 34927 ft 488 kts 73°
2026-04-29 07:01 11.42722 92.02789 34996 ft 488 kts 73°
2026-04-29 07:02 11.44748 92.09393 35158 ft 487 kts 73°
2026-04-29 07:02 11.45764 92.12689 35263 ft 487 kts 73°
2026-04-29 07:02 11.46783 92.15983 35399 ft 487 kts 73°
2026-04-29 07:02 11.47805 92.19274 35555 ft 487 kts 72°
2026-04-29 07:03 11.48832 92.22567 35719 ft 486 kts 72°
2026-04-29 07:03 11.49845 92.25805 35908 ft 485 kts 72°
2026-04-29 07:03 11.50873 92.29080 36118 ft 484 kts 72°
2026-04-29 07:03 11.51901 92.32344 36344 ft 482 kts 72°
2026-04-29 07:04 11.52926 92.35589 36585 ft 479 kts 72°
2026-04-29 07:04 11.54937 92.42079 35816 ft 482 kts 73°
2026-04-29 07:04 11.55927 92.45349 35213 ft 483 kts 73°
2026-04-29 07:05 11.56916 92.48623 34983 ft 484 kts 73°
2026-04-29 07:05 11.58923 92.55197 34925 ft 487 kts 73°
2026-04-29 07:06 11.60958 92.61789 34923 ft 487 kts 73°
2026-04-29 07:06 11.62992 92.68381 34922 ft 487 kts 72°
2026-04-29 07:07 11.65071 92.74953 34919 ft 487 kts 68°
2026-04-29 07:07 11.67861 92.81256 34932 ft 487 kts 65°
2026-04-29 07:08 11.70686 92.87532 34933 ft 487 kts 65°
2026-04-29 07:08 11.73511 92.93818 34934 ft 487 kts 65°
2026-04-29 07:09 11.76333 93.00109 34937 ft 487 kts 65°
2026-04-29 07:09 11.79156 93.06394 34944 ft 487 kts 65°
2026-04-29 07:10 11.81974 93.12682 34942 ft 487 kts 65°
2026-04-29 07:10 11.84787 93.18970 34945 ft 487 kts 65°
2026-04-29 07:11 11.87594 93.25256 34947 ft 486 kts 65°
2026-04-29 07:11 11.90378 93.31501 34946 ft 486 kts 65°
2026-04-29 07:12 11.93190 93.37788 34943 ft 486 kts 65°
2026-04-29 07:12 11.95999 93.44069 34943 ft 486 kts 65°
2026-04-29 07:13 11.98798 93.50353 34946 ft 486 kts 65°
2026-04-29 07:13 12.01598 93.56654 34946 ft 486 kts 65°
2026-04-29 07:14 12.04411 93.62945 34935 ft 487 kts 65°
2026-04-29 07:14 12.07226 93.69250 34931 ft 488 kts 65°
2026-04-29 07:15 12.10029 93.75569 34931 ft 488 kts 65°
2026-04-29 07:15 12.12833 93.81890 34935 ft 489 kts 64°
2026-04-29 07:16 12.15645 93.88214 34944 ft 488 kts 65°
2026-04-29 07:16 12.18432 93.94501 34945 ft 488 kts 65°
2026-04-29 07:17 12.21231 94.00821 34944 ft 488 kts 65°
2026-04-29 07:17 12.24049 94.07149 34945 ft 488 kts 64°
2026-04-29 07:18 12.26890 94.13456 34949 ft 488 kts 64°
2026-04-29 07:18 12.29737 94.19760 34950 ft 488 kts 64°
2026-04-29 07:19 12.32573 94.26064 34952 ft 488 kts 64°
2026-04-29 07:19 12.35408 94.32369 34951 ft 488 kts 64°
2026-04-29 07:20 12.38239 94.38670 34949 ft 488 kts 64°
2026-04-29 07:20 12.41081 94.44981 34944 ft 488 kts 64°
2026-04-29 07:21 12.43943 94.51293 34944 ft 489 kts 64°
2026-04-29 07:21 12.46802 94.57601 34944 ft 489 kts 63°
2026-04-29 07:22 12.49659 94.63916 34949 ft 489 kts 64°
2026-04-29 07:22 12.52512 94.70243 34949 ft 489 kts 64°
2026-04-29 07:23 12.55363 94.76568 34949 ft 489 kts 64°
2026-04-29 07:23 12.58216 94.82884 34949 ft 489 kts 64°
2026-04-29 07:24 12.61070 94.89208 34949 ft 489 kts 64°
2026-04-29 07:24 12.63440 94.94466 34950 ft 489 kts 64°
2026-04-29 07:25 12.66771 95.01860 34949 ft 489 kts 63°
2026-04-29 07:25 12.69133 95.07115 34950 ft 489 kts 63°
2026-04-29 07:26 12.71972 95.13444 34951 ft 489 kts 63°
2026-04-29 07:26 12.74825 95.19772 34946 ft 489 kts 63°
2026-04-29 07:27 12.77669 95.26108 34942 ft 490 kts 63°
2026-04-29 07:27 12.80511 95.32457 34941 ft 490 kts 63°
2026-04-29 07:28 12.83362 95.38815 34949 ft 491 kts 63°
2026-04-29 07:28 12.86205 95.45171 34945 ft 491 kts 64°
2026-04-29 07:29 12.88207 95.51854 34941 ft 493 kts 77°
2026-04-29 07:29 12.89645 95.58734 34940 ft 493 kts 77°
2026-04-29 07:30 12.91082 95.65562 34943 ft 493 kts 77°
2026-04-29 07:30 12.92526 95.72443 34941 ft 493 kts 77°
2026-04-29 07:31 12.94681 95.82754 34949 ft 493 kts 77°
2026-04-29 07:31 12.96119 95.89670 34949 ft 493 kts 77°
2026-04-29 07:32 12.97536 95.96497 34953 ft 492 kts 77°
2026-04-29 07:32 12.98971 96.03359 34952 ft 492 kts 77°
2026-04-29 07:33 13.00394 96.10225 34949 ft 492 kts 77°
2026-04-29 07:33 13.01810 96.17092 34951 ft 492 kts 76°
2026-04-29 07:34 13.03232 96.23953 34952 ft 491 kts 76°
2026-04-29 07:34 13.04654 96.30802 34951 ft 491 kts 76°
2026-04-29 07:35 13.06071 96.37661 34949 ft 491 kts 77°
2026-04-29 07:35 13.07485 96.44526 34937 ft 492 kts 77°
2026-04-29 07:36 13.08904 96.51402 34936 ft 493 kts 76°
2026-04-29 07:36 13.10320 96.58282 34932 ft 493 kts 76°
2026-04-29 07:37 13.11734 96.65172 34939 ft 494 kts 76°
2026-04-29 07:37 13.13145 96.72068 34941 ft 494 kts 76°
2026-04-29 07:38 13.14556 96.78960 34940 ft 494 kts 76°
2026-04-29 07:38 13.15970 96.85855 34941 ft 494 kts 76°
2026-04-29 07:39 13.17377 96.92750 34945 ft 494 kts 76°
2026-04-29 07:39 13.18785 96.99654 34941 ft 494 kts 76°
2026-04-29 07:40 13.20177 97.06510 34940 ft 494 kts 76°
2026-04-29 07:40 13.21579 97.13410 34940 ft 494 kts 76°
2026-04-29 07:41 13.22978 97.20305 34946 ft 494 kts 76°
2026-04-29 07:41 13.24379 97.27205 34941 ft 494 kts 76°
2026-04-29 07:42 13.25778 97.34100 34940 ft 494 kts 76°
2026-04-29 07:42 13.27173 97.40998 34942 ft 494 kts 76°
2026-04-29 07:43 13.28562 97.47898 34938 ft 494 kts 76°
2026-04-29 07:43 13.29953 97.54799 34940 ft 494 kts 76°
2026-04-29 07:44 13.31346 97.61694 34940 ft 493 kts 76°
2026-04-29 07:44 13.32730 97.68591 34946 ft 493 kts 76°
2026-04-29 07:45 13.34106 97.75480 34940 ft 492 kts 76°
2026-04-29 07:45 13.35488 97.82360 34944 ft 491 kts 75°
2026-04-29 07:46 13.36869 97.89227 34938 ft 491 kts 76°
2026-04-29 07:46 13.38240 97.96099 34950 ft 491 kts 76°
2026-04-29 07:47 13.39608 98.02961 34948 ft 490 kts 75°
2026-04-29 07:47 13.40979 98.09820 34944 ft 490 kts 75°
2026-04-29 07:48 13.42347 98.16681 34942 ft 490 kts 75°
2026-04-29 07:48 13.43707 98.23553 34946 ft 490 kts 75°
2026-04-29 07:49 13.45064 98.30410 34948 ft 490 kts 75°
2026-04-29 07:49 13.46422 98.37274 34946 ft 490 kts 75°
2026-04-29 07:50 13.47786 98.44147 34939 ft 491 kts 75°
2026-04-29 07:50 13.49136 98.50984 34951 ft 492 kts 75°
2026-04-29 07:51 13.50494 98.57875 34950 ft 492 kts 75°
2026-04-29 07:51 13.51848 98.64762 34974 ft 492 kts 75°
2026-04-29 07:52 13.53199 98.71660 34976 ft 492 kts 75°
2026-04-29 07:52 13.54552 98.78545 34979 ft 491 kts 76°
2026-04-29 07:53 13.55900 98.85416 34987 ft 490 kts 76°
2026-04-29 07:53 13.57247 98.92279 34985 ft 490 kts 76°
2026-04-29 07:54 13.58582 98.99136 34978 ft 489 kts 76°
2026-04-29 07:54 13.59918 99.05991 34977 ft 489 kts 76°
2026-04-29 07:55 13.61249 99.12843 34978 ft 488 kts 76°
2026-04-29 07:55 13.62575 99.19678 34985 ft 486 kts 76°
2026-04-29 07:56 13.63892 99.26479 34974 ft 484 kts 76°
2026-04-29 07:56 13.65206 99.33263 34973 ft 483 kts 76°
2026-04-29 07:57 13.66517 99.40040 34965 ft 483 kts 76°
2026-04-29 07:57 13.67831 99.46804 34969 ft 482 kts 77°
2026-04-29 07:58 13.69138 99.53562 34971 ft 481 kts 77°
2026-04-29 07:58 13.70435 99.60257 34959 ft 480 kts 77°
2026-04-29 07:59 13.71732 99.66988 34954 ft 480 kts 77°
2026-04-29 07:59 13.73024 99.73721 34954 ft 480 kts 77°
2026-04-29 08:00 13.74313 99.80453 34943 ft 479 kts 77°
2026-04-29 08:00 13.75600 99.87179 34945 ft 479 kts 76°
2026-04-29 08:01 13.76887 99.93906 34946 ft 479 kts 76°
2026-04-29 08:01 13.78172 100.00631 34943 ft 479 kts 76°
2026-04-29 08:02 13.79459 100.07354 34947 ft 479 kts 76°
2026-04-29 08:02 13.80745 100.14099 34945 ft 479 kts 77°
2026-04-29 08:03 13.82022 100.20822 34939 ft 479 kts 76°
2026-04-29 08:03 13.83300 100.27548 34939 ft 479 kts 76°
2026-04-29 08:04 13.84577 100.34274 34906 ft 479 kts 76°
2026-04-29 08:04 13.85836 100.40960 34882 ft 479 kts 76°
2026-04-29 08:05 13.87100 100.47692 34866 ft 479 kts 76°
2026-04-29 08:05 13.88373 100.54413 34851 ft 479 kts 76°
2026-04-29 08:06 13.89330 100.61197 34844 ft 482 kts 87°
2026-04-29 08:06 13.89253 100.68103 34842 ft 483 kts 89°
2026-04-29 08:07 13.89178 100.75007 34857 ft 483 kts 88°
2026-04-29 08:07 13.89114 100.81918 34875 ft 483 kts 88°
2026-04-29 08:08 13.89046 100.88821 34880 ft 482 kts 88°
2026-04-29 08:08 13.88966 100.95728 34896 ft 482 kts 89°
2026-04-29 08:09 13.88896 101.01512 34910 ft 482 kts 89°
2026-04-29 08:09 13.88815 101.08410 34917 ft 482 kts 89°
2026-04-29 08:10 13.88709 101.16433 34916 ft 482 kts 89°
2026-04-29 08:10 13.88633 101.22160 34914 ft 482 kts 89°
2026-04-29 08:11 13.88545 101.29062 34906 ft 482 kts 89°
2026-04-29 08:11 13.88453 101.35964 34902 ft 482 kts 89°
2026-04-29 08:12 13.88365 101.42873 34903 ft 483 kts 89°
2026-04-29 08:12 13.88276 101.49783 34907 ft 483 kts 89°
2026-04-29 08:13 13.88177 101.56708 34909 ft 484 kts 89°
2026-04-29 08:13 13.88072 101.63632 34910 ft 484 kts 89°
2026-04-29 08:14 13.87972 101.70550 34908 ft 484 kts 88°
2026-04-29 08:14 13.87873 101.77483 34903 ft 484 kts 88°
2026-04-29 08:15 13.87775 101.84417 34902 ft 485 kts 88°
2026-04-29 08:15 13.87673 101.91360 34905 ft 485 kts 88°
2026-04-29 08:16 13.87562 101.98299 34904 ft 485 kts 89°
2026-04-29 08:16 13.87438 102.05244 34904 ft 485 kts 88°
2026-04-29 08:17 13.87318 102.12188 34898 ft 485 kts 88°
2026-04-29 08:17 13.87208 102.19139 34906 ft 486 kts 88°
2026-04-29 08:18 13.87091 102.26087 34906 ft 486 kts 88°
2026-04-29 08:18 13.86974 102.33040 34904 ft 486 kts 88°
2026-04-29 08:19 13.86854 102.39993 34901 ft 486 kts 88°
2026-04-29 08:19 13.86726 102.46943 34907 ft 486 kts 88°
2026-04-29 08:20 13.86606 102.53890 34910 ft 486 kts 88°
2026-04-29 08:20 13.86485 102.60843 34918 ft 486 kts 88°
2026-04-29 08:21 13.86352 102.67792 34909 ft 486 kts 88°
2026-04-29 08:21 13.86218 102.74747 34911 ft 486 kts 88°
2026-04-29 08:22 13.86082 102.81694 34914 ft 486 kts 88°
2026-04-29 08:22 13.85953 102.88639 34909 ft 485 kts 88°
2026-04-29 08:23 13.85819 102.95577 34907 ft 485 kts 88°
2026-04-29 08:23 13.85680 103.02511 34900 ft 484 kts 88°
2026-04-29 08:24 13.85536 103.09437 34897 ft 484 kts 88°
2026-04-29 08:24 13.85388 103.16363 34899 ft 484 kts 89°
2026-04-29 08:25 13.85247 103.23241 34900 ft 483 kts 89°
2026-04-29 08:25 13.85107 103.30153 34912 ft 482 kts 89°
2026-04-29 08:26 13.84959 103.37047 34912 ft 481 kts 89°
2026-04-29 08:26 13.84808 103.43917 34909 ft 480 kts 89°
2026-04-29 08:27 13.84660 103.50785 34914 ft 480 kts 89°
2026-04-29 08:27 13.84512 103.57658 34899 ft 480 kts 90°
2026-04-29 08:28 13.84354 103.64531 34894 ft 480 kts 90°
2026-04-29 08:28 13.84198 103.71396 34891 ft 480 kts 90°
2026-04-29 08:29 13.84042 103.78273 34888 ft 480 kts 90°
2026-04-29 08:29 13.83881 103.85147 34895 ft 481 kts 90°
2026-04-29 08:30 13.83637 103.95468 34888 ft 481 kts 90°
2026-04-29 08:31 13.83477 104.02359 34887 ft 482 kts 90°
2026-04-29 08:31 13.83308 104.09253 34890 ft 482 kts 90°
2026-04-29 08:32 13.83136 104.16150 34888 ft 482 kts 90°
2026-04-29 08:32 13.82966 104.23049 34896 ft 482 kts 90°
2026-04-29 08:33 13.82785 104.29953 34897 ft 482 kts 91°
2026-04-29 08:33 13.82607 104.36847 34898 ft 482 kts 91°
2026-04-29 08:34 13.82433 104.43700 34892 ft 482 kts 91°
2026-04-29 08:34 13.82254 104.50595 34893 ft 482 kts 91°
2026-04-29 08:35 13.82075 104.57532 34892 ft 482 kts 91°
2026-04-29 08:35 13.81893 104.64378 34891 ft 482 kts 91°
2026-04-29 08:36 13.81698 104.71267 34893 ft 482 kts 91°
2026-04-29 08:36 13.81507 104.78157 34891 ft 482 kts 91°
2026-04-29 08:37 13.81328 104.85039 34886 ft 481 kts 90°
2026-04-29 08:37 13.81143 104.91963 34885 ft 481 kts 91°
2026-04-29 08:38 13.80947 104.98841 34846 ft 480 kts 91°
2026-04-29 08:38 13.80752 105.05664 34845 ft 480 kts 91°
2026-04-29 08:39 13.80556 105.12577 34850 ft 481 kts 91°
2026-04-29 08:39 13.80364 105.19449 34843 ft 480 kts 91°
2026-04-29 08:40 13.80161 105.26312 34842 ft 480 kts 91°
2026-04-29 08:40 13.79954 105.33168 34849 ft 479 kts 92°
2026-04-29 08:41 13.79747 105.40026 34863 ft 479 kts 92°
2026-04-29 08:41 13.79549 105.46867 34869 ft 478 kts 92°
2026-04-29 08:42 13.79350 105.53701 34866 ft 478 kts 92°
2026-04-29 08:42 13.79137 105.60525 34865 ft 477 kts 92°
2026-04-29 08:43 13.78920 105.67304 34867 ft 477 kts 92°
2026-04-29 08:43 13.78710 105.74115 34875 ft 476 kts 92°
2026-04-29 08:44 13.78500 105.80906 34870 ft 475 kts 92°
2026-04-29 08:44 13.78291 105.87689 34868 ft 474 kts 92°
2026-04-29 08:45 13.78072 105.94466 34861 ft 473 kts 92°
2026-04-29 08:45 13.77856 106.01229 34863 ft 473 kts 92°
2026-04-29 08:46 13.77643 106.07988 34868 ft 472 kts 92°
2026-04-29 08:46 13.78201 106.14692 34858 ft 472 kts 81°
2026-04-29 08:47 13.79274 106.21343 34846 ft 471 kts 81°
2026-04-29 08:47 13.80345 106.28005 34848 ft 471 kts 81°
2026-04-29 08:48 13.81417 106.34654 34844 ft 471 kts 81°
2026-04-29 08:48 13.82486 106.41315 34836 ft 472 kts 81°
2026-04-29 08:49 13.83548 106.47981 34832 ft 472 kts 81°
2026-04-29 08:49 13.84614 106.54650 34834 ft 473 kts 81°
2026-04-29 08:50 13.85681 106.61332 34841 ft 473 kts 81°
2026-04-29 08:50 13.86565 106.66897 34844 ft 473 kts 81°
2026-04-29 08:51 13.87626 106.73577 34833 ft 473 kts 81°
2026-04-29 08:51 13.88689 106.80271 34828 ft 474 kts 81°
2026-04-29 08:52 13.89755 106.86966 34830 ft 474 kts 81°
2026-04-29 08:52 13.90809 106.93672 34836 ft 474 kts 81°
2026-04-29 08:53 13.91859 107.00381 34841 ft 475 kts 81°
2026-04-29 08:53 13.92915 107.07087 34839 ft 475 kts 82°
2026-04-29 08:54 13.93971 107.13797 34837 ft 475 kts 82°
2026-04-29 08:54 13.94497 107.17157 34838 ft 475 kts 82°